Other Public Products
Issued by NWS Grand Forks, ND

Home | Current Version | Previous Version | Graphics & Text | Print | Product List | Glossary On
Versions: 1 2 3 4 5 6 7 8 9 10 11 12 13 14 15 16 17 18 19 20 21 22 23 24 25 26 27 28 29 30 31 32 33 34 35 36 37 38 39 40 41 42 43 44 45 46 47 48 49 50
000
FPUS83 KFGF 240210
OPUFGF
PRAIRIE TO PINES WEATHER ROUNDUP
NATIONAL WEATHER SERVICE EASTERN NORTH DAKOTA/GRAND FORKS ND
900 PM CDT SAT MAY 23 2015

 **SATELLITE DATA USED TO AUGMENT SKY COVER AT AUTOMATED STATIONS**
 *****  WEATHER ACROSS EASTERN NORTH DAKOTA  *****

CITY           SKY/WX    TMP DP  RH WIND       PRES   REMARKS
GRAND FORKS    PTCLDY    65  46  50 S8        30.08S
GRAND FORKS AF PTCLDY    64  45  50 S7        30.09R
GRAND CITY NWS   N/A     64 N/A N/A S15         N/A
BUXTON         NOT AVBL
DEVILS LAKE    MOCLDY    66  43  42 S8        30.09R
FARGO          CLEAR     65  46  50 SE6       30.11R
WAHPETON ARPT  MOCLDY    63  45  51 SE5       30.12R
$$

 *****  WEATHER ACROSS CENTRAL AND WESTERN NORTH DAKOTA  *****

CITY           SKY/WX    TMP DP  RH WIND       PRES   REMARKS
JAMESTOWN      CLOUDY    63  49  60 S7        30.10S
BISMARCK       CLOUDY    60  49  66 SE9       30.10S
MINOT          MOCLDY    67  43  41 S12       30.07R
MINOT AFB      MOCLDY    67  44  42 S7        30.06R
GARRISON         N/A     63  47  55 CALM      30.09S
WILLISTON      CLOUDY    68  39  34 SE7       30.08S
DICKINSON      CLOUDY    56  46  69 E7        30.07S
HETTINGER      CLOUDY    56  47  71 E8        30.09R
$$

 *****  OTHER OBSERVATIONS NORTHEAST NORTH DAKOTA  *****

CITY           SKY/WX    TMP DP  RH WIND       PRES   REMARKS
WALHALLA         N/A     73  36  25 S3        30.06R
LANGDON        FAIR      68  43  40 SW12      30.09R
CAVALIER       FAIR      70  48  46 S7        30.05S
GRAFTON        FAIR      68  46  45 S9        30.08R
CANDO          FAIR      66  43  42 S10       30.09R
FORT TOTTEN      N/A     65  41  41 S6        29.95S
ROLLA          FAIR      68  36  30 S9        30.08S
RUGBY          NOT AVBL
 ***** THE ABOVE OBSERVATIONS ARE NON NWS ARE NOT QUALITY
        CONTROLLED AND MAY MIS-REPORT RAIN FOR SNOW...
$$

 *****  OTHER OBSERVATIONS SOUTHEAST NORTH DAKOTA *****

CITY           SKY/WX    TMP DP  RH WIND       PRES   REMARKS
COOPERSTOWN    NOT AVBL
VALLEY CITY    FAIR      63  46  55 SE5       30.11S
OAKES            N/A     63  50  63 E3        30.11R
GWINNER        NOT AVBL
BUFFALO        NOT AVBL
WYNDMERE         N/A     66  46  48 SE3         N/A
 ***** THE ABOVE OBSERVATIONS ARE NON NWS ARE NOT QUALITY
       CONTROLLED AND MAY MIS-REPORT RAIN FOR SNOW...
$$

  *****  WEATHER ACROSS NORTHERN MINNESOTA  *****

CITY           SKY/WX    TMP DP  RH WIND       PRES   REMARKS
FLAG ISLAND    CLEAR     72  36  26 SW7       30.05S
WARROAD        CLEAR     66  50  55 CALM      30.08S
ROSEAU         CLEAR     70  37  30 CALM      30.08R
HALLOCK        PTCLDY    72  43  35 SW12      30.06R
THF RVR FALLS  PTCLDY    68  43  40 SW8       30.11R
HALSTAD        NOT AVBL
FOSSTON        CLEAR     63  43  48 SW8       30.13R
BAUDETTE       CLEAR     68  43  40 S3        30.08R
WASKISH        CLEAR     64  46  52 CALM      30.10S
CROOKSTON      PTCLDY    64  43  45 SW9       30.11S
$$
  *****  WEATHER ACROSS CENTRAL AND WEST MINNESOTA  *****

CITY           SKY/WX    TMP DP  RH WIND       PRES   REMARKS
BEMIDJI        CLEAR     64  44  48 S6        30.12S
PARK RAPIDS    CLEAR     63  44  50 S5        30.13S
WADENA         PTCLDY    63  45  51 SE3       30.13S
DETROIT LAKES  CLEAR     63  45  51 S3        30.14S
MOORHEAD       CLEAR     66  45  45 SE3       30.12S
FERGUS FALLS   PTCLDY    64  46  52 SE3       30.13R
ELBOW LAKE     FAIR      63  47  54 SE6       30.12R
MORRIS MN      CLOUDY    64  46  52 E7        30.11S
STAPLES        MOCLDY    63  43  48 CALM      30.14S
WHEATON        MOCLDY    63  48  59 E6        30.13R
$$
  *****  WEATHER ELSEWHERE ACROSS MINNESOTA  *****

CITY           SKY/WX    TMP DP  RH WIND       PRES   REMARKS
DULUTH         PTCLDY    65  42  43 SW8       30.15S
INTRNTL FALLS  CLEAR     68  39  34 W5        30.08R
ELY            PTCLDY    68  32  26 SW5       30.10R
CLOQUET        MOCLDY    64  39  39 CALM      30.15S
BRAINERD       MOCLDY    61  46  57 CALM      30.15F
HIBBING        PTCLDY    65  42  43 SW8       30.13R
ALEXANDRIA     CLOUDY    63  45  51 E7        30.15S
SAINT CLOUD    CLOUDY    63  47  55 CALM      30.14S
MINNEAPOLIS    MOCLDY    64  46  52 NE8       30.13S
$$

  *****  WEATHER ACROSS SOUTH DAKOTA  *****

CITY           SKY/WX    TMP DP  RH WIND       PRES   REMARKS
SIOUX FALLS    CLOUDY    63  54  72 SW3       30.08R
BROOKINGS      CLOUDY    64  52  63 CALM      30.09S
WATERTOWN      CLOUDY    63  49  60 NE8       30.09S
HURON          MOCLDY    63  53  70 CALM      30.07F
SISSETON         N/A     64  50  60 SE6       30.10R
ABERDEEN       CLOUDY    63  51  65 SE6       30.09R
MITCHELL       CLOUDY    62  54  74 CALM      30.06F
PIERRE         CLOUDY    60  53  77 SE14      30.04S
MOBRIDGE       CLOUDY    59  54  83 E6        30.06S
RAPID CITY     LGT RAIN  54  53  97 E13       30.02S FOG
$$

  *****  SOME WEATHER IN NEARBY STATES *****

CITY           SKY/WX    TMP DP  RH WIND       PRES   REMARKS
GLASGOW MT     PTCLDY    67  41  38 SE12      30.07R
GREAT FALLS MT CLOUDY    53  48  83 W6        30.10S
CHEYENNE WY    CLOUDY    47  43  86 NE7       29.95R
SCOTTSBLUFF NE LGT RAIN  55  54  96 SE6       29.92S
OMAHA NE       CLOUDY    63  60  90 SE7       30.04R
DES MOINES IA  CLOUDY    70  53  54 SE6       30.10S
DAVENPORT IA   PTCLDY    69  45  41 S7        30.15S
CHICAGO IL     PTCLDY    69  42  37 E7        30.18S
EAU CLAIRE WI  CLOUDY    63  48  58 NE5       30.13F
LA CROSSE WI   PTCLDY    69  49  48 S5        30.12S
$$

  *****  SOME NATIONAL WEATHER *****

CITY           SKY/WX    TMP DP  RH WIND       PRES   REMARKS
LA GUARDIA NY  CLEAR     60  43  53 S7        30.34R
RALEIGH NC     PTCLDY    65  52  62 CALM      30.38R
ATLANTA GA     PTCLDY    71  49  45 E7        30.30R
NEW ORLEANS LA PTCLDY    80  70  71 SE12      30.10S
OKLAHOMA CITY  TSTM      63  63 100 E16       29.95R
ALBUQUERQUE NM MOCLDY    69  18  14 NW10      29.92R
SALT LAKE CITY PTCLDY    58  43  57 NW10      29.92R
LOS ANGELES CA PTCLDY    61  51  70 W13       30.02F
BOISE ID       PTSUNNY   74  48  39 SE6       29.81S
SEATTLE WA     CLOUDY    60  51  72 W5        30.16F
$$

*** WEATHER ACROSS MANITOBA...SASKATCHEWAN AND ONTARIO ***
                ***ONTARIO***

CITY           SKY/WX    TMP DP  RH WIND       PRES   REMARKS
GERALDTON      MOCLDY    63  45  51 W7        30.02R
THUNDER BAY    MOCLDY    63  41  45 NE7       30.06R
SIOUX LOOKOUT  PTCLDY    64  43  45 W3        30.04R
TORONTO        PTCLDY    63  30  29 SW13G18   30.25R
BIG TROUT LK   CLEAR     45  28  53 N3        30.08S
PICKLE LAKE    PTCLDY    57  39  51 NE8       30.05R
DRYDEN         CLEAR     68  37  32 SW3       30.06S
KENORA         PTCLDY    70  45  40 S12       30.05F
$$
                *** MANITOBA***

CITY           SKY/WX    TMP DP  RH WIND       PRES   REMARKS
BRANDON        PTCLDY    70  41  35 W10       30.04S
DAUPHIN        CLEAR     68  48  49 E3        30.06R
ISLAND LAKE    PTCLDY    52  27  37 NE3       30.12S
PILOT MOUND      N/A     68  39  34 SE5         N/A
THE PAS        PTCLDY    63  37  39 NE3       30.12S
THOMPSON       PTCLDY    57  23  26 NW6       30.11F
WINNIPEG       PTCLDY    73  39  29 S8        30.04R
LYNN LAKE      CLEAR     59  19  21 W6        30.13S
CHURCHILL      CLOUDY    54  30  40 W16       29.85F
GILLAM         PTCLDY    52  27  37 W8        30.05F
$$
                ***SASKATCHEWAN***

CITY           SKY/WX    TMP DP  RH WIND       PRES   REMARKS
ESTEVAN        CLOUDY    68  43  40 S2        30.07S
KINDERSLEY     MOCLDY    73  34  23 NE7       30.08S
LLOYDMINSTER   PTSUNNY   70  34  26 NE7       30.07S
PRINCE ALBERT  MOCLDY    72  43  35 E14       30.07R
REGINA         PTCLDY    70  39  32 S7        30.08R
YORKTON        CLEAR     70  41  35 NE14      30.07R


USA.gov is the U.S. government's official web portal to all federal, state and local government web resources and services.